Location: Bretagne
(43.8474°N, 0.4650°W)
Time: 00:36:25
(UTC+00:00)

Envisat - Pass Details

Date: 11 March 2026
Orbit: 761 x 762 km, 98.4° (Epoch: 13 April)

Event Time Altitude Azimuth Distance (km) Brightness Sun altitude
Rises 01:58:05 0° 22° (NNE) 3,234 7.0 -43.6°
Reaches altitude 10° 02:00:38 10° 33° (NNE) 2,303 6.1 -43.3°
Enters shadow 02:01:11 13° 36° (NE) 2,111 5.8 -43.2°
